Weather History for Thomson, GA

Change the Weather History Date:

Saturday, October 27, 2012

  Actual Average (KDBN) Record (KDBN)
Temperature  
Mean Temperature 66 °F -  
Max Temperature 75 °F 76 °F 90 °F (1939)
Min Temperature 57 °F 47 °F 29 °F (1968)
Cooling Degree Days 1    
Growing Degree Days 16 (Base 50)    
Moisture  
Dew Point 58 °F    
Average Humidity 82    
Maximum Humidity 100    
Minimum Humidity 57    
Precipitation  
Precipitation 0.00 in - - ()
Sea Level Pressure  
Sea Level Pressure 29.82 in    
Wind  
Wind Speed 6 mph (North)    
Max Wind Speed 13 mph    
Max Gust Speed 20 mph    
Visibility 10 miles    
Events      
Averages and records for this station are not official NWS values.
T = Trace of Precipitation, MM = Missing Value Source: NWS Daily Summary

Daily Weather History Graph

Daily Weather History Graph

Search for Another Location

Airport:

Trip Planner

Search our weather history database for the weather conditions in past years. The results will help you decide how hot, cold, wet, or windy it might be!

Date:

Astronomy

Oct. 27, 2012 Rise Set
Actual Time 7:44 AM EDT 6:42 PM EDT
Civil Twilight 7:19 AM EDT 7:07 PM EDT
Nautical Twilight 6:50 AM EDT 7:37 PM EDT
Astronomical Twilight 6:21 AM EDT 8:05 PM EDT
Moon 5:24 PM EDT (10/27) 5:43 AM EDT (10/27)
Length of Visible Light 11h 48m
Length of Day
10h 57m
Waxing Gibbous, 96% of the Moon is Illuminated
Oct 27
Waxing Gibbous
Oct 29
Full
Nov 6
Last Quarter
Nov 13
New
Nov 20
First Quarter

Hourly Weather History & Observations

Time (EDT) Temp. Dew Point Humidity Pressure Visibility Wind Dir Wind Speed Gust Speed Precip Events Conditions
12:15 AM 61.7 °F 56.5 °F 83% 29.94 in 10.0 mi Calm Calm - N/A   Clear
12:35 AM 62.4 °F 57.2 °F 83% 29.94 in 10.0 mi North 4.6 mph - N/A   Clear
12:55 AM 61.7 °F 57.2 °F 85% 29.93 in 10.0 mi North 3.5 mph - N/A   Clear
1:15 AM 61.0 °F 57.4 °F 88% 29.92 in 10.0 mi North 5.8 mph - N/A   Clear
1:35 AM 59.9 °F 57.2 °F 91% 29.92 in 10.0 mi North 4.6 mph - N/A   Clear
1:55 AM 59.9 °F 57.4 °F 91% 29.91 in 10.0 mi North 5.8 mph - N/A   Clear
2:15 AM 58.1 °F 56.7 °F 95% 29.90 in 10.0 mi NNW 5.8 mph - N/A   Clear
2:35 AM 59.0 °F 57.4 °F 94% 29.89 in 10.0 mi NNW 4.6 mph - N/A   Clear
2:55 AM 58.5 °F 57.4 °F 96% 29.88 in 10.0 mi North 6.9 mph - N/A   Clear
3:15 AM 59.5 °F 57.7 °F 94% 29.88 in 10.0 mi North 6.9 mph - N/A   Clear
3:55 AM 59.0 °F 57.6 °F 95% 29.86 in 10.0 mi NNW 4.6 mph - N/A   Clear
4:15 AM 58.3 °F 57.4 °F 97% 29.86 in 10.0 mi NNW 4.6 mph - N/A   Clear
4:35 AM 57.7 °F 57.4 °F 99% 29.86 in 10.0 mi NW 4.6 mph - N/A   Clear
4:55 AM 57.4 °F 57.2 °F 99% 29.85 in 10.0 mi North 4.6 mph - N/A   Clear
5:15 AM 57.6 °F 57.4 °F 99% 29.85 in 10.0 mi North 3.5 mph - N/A   Clear
5:35 AM 57.4 °F 57.4 °F 100% 29.85 in 7.0 mi NNW 4.6 mph - N/A   Clear
5:55 AM 58.1 °F 57.9 °F 99% 29.85 in 10.0 mi North 4.6 mph - N/A   Clear
6:15 AM 57.4 °F 57.4 °F 100% 29.84 in 7.0 mi Calm Calm - N/A   Clear
6:35 AM 57.9 °F 57.9 °F 100% 29.85 in 7.0 mi North 3.5 mph - N/A   Mostly Cloudy
6:55 AM 58.8 °F 58.5 °F 99% 29.85 in 10.0 mi North 4.6 mph - N/A   Overcast
7:15 AM 59.2 °F 58.6 °F 98% 29.86 in 10.0 mi NNW 5.8 mph - N/A   Overcast
7:55 AM 59.9 °F 59.0 °F 97% 29.87 in 10.0 mi NNW 6.9 mph - N/A   Overcast
8:15 AM 60.3 °F 59.2 °F 96% 29.87 in 10.0 mi North 9.2 mph - N/A   Overcast
8:35 AM 61.0 °F 59.4 °F 94% 29.87 in 10.0 mi North 8.1 mph - N/A   Overcast
8:55 AM 61.7 °F 59.5 °F 93% 29.88 in 10.0 mi North 9.2 mph - N/A   Overcast
9:15 AM 61.9 °F 59.9 °F 93% 29.88 in 10.0 mi North 9.2 mph - N/A   Overcast
9:35 AM 62.6 °F 59.9 °F 91% 29.88 in 10.0 mi North 10.4 mph - N/A   Overcast
9:55 AM 63.0 °F 59.9 °F 90% 29.88 in 10.0 mi North 10.4 mph - N/A   Overcast
10:15 AM 63.5 °F 60.1 °F 89% 29.88 in 10.0 mi North 8.1 mph - N/A   Overcast
10:35 AM 64.2 °F 60.3 °F 87% 29.87 in 10.0 mi North 8.1 mph 16.1 mph N/A   Overcast
10:55 AM 65.3 °F 60.8 °F 85% 29.86 in 10.0 mi North 9.2 mph - N/A   Scattered Clouds
11:35 AM 66.7 °F 60.8 °F 81% 29.85 in 7.0 mi North 6.9 mph - N/A   Scattered Clouds
11:55 AM 67.1 °F 60.8 °F 80% 29.85 in 10.0 mi North 8.1 mph - N/A   Scattered Clouds
12:15 PM 68.7 °F 60.8 °F 76% 29.83 in 10.0 mi North 11.5 mph - N/A   Scattered Clouds
12:35 PM 69.1 °F 60.8 °F 75% 29.83 in 10.0 mi NNW 6.9 mph - N/A   Clear
12:55 PM 69.8 °F 60.8 °F 73% 29.82 in 10.0 mi North 5.8 mph 18.4 mph N/A   Clear
1:15 PM 70.7 °F 60.8 °F 71% 29.81 in 10.0 mi NNE 8.1 mph 16.1 mph N/A   Scattered Clouds
1:35 PM 71.8 °F 60.8 °F 68% 29.80 in 10.0 mi NNE 12.7 mph - N/A   Scattered Clouds
1:55 PM 72.5 °F 61.0 °F 67% 29.79 in 10.0 mi NNW 8.1 mph - N/A   Scattered Clouds
2:15 PM 73.6 °F 60.8 °F 64% 29.78 in 10.0 mi NNW 10.4 mph 19.6 mph N/A   Scattered Clouds
2:35 PM 74.3 °F 60.8 °F 63% 29.77 in 10.0 mi North 9.2 mph - N/A   Scattered Clouds
2:55 PM 75.4 °F 60.1 °F 59% 29.77 in 10.0 mi North 12.7 mph 17.3 mph N/A   Scattered Clouds
3:15 PM 74.7 °F 60.1 °F 60% 29.76 in 10.0 mi North 11.5 mph 17.3 mph N/A   Mostly Cloudy
3:35 PM 74.5 °F 59.5 °F 60% 29.75 in 10.0 mi NNE 11.5 mph 18.4 mph N/A   Mostly Cloudy
3:55 PM 74.1 °F 58.8 °F 59% 29.74 in 10.0 mi North 6.9 mph - N/A   Scattered Clouds
4:15 PM 74.5 °F 59.0 °F 58% 29.74 in 10.0 mi North 12.7 mph 19.6 mph N/A   Clear
4:35 PM 73.9 °F 58.6 °F 59% 29.74 in 10.0 mi NNW 10.4 mph 18.4 mph N/A   Clear
4:55 PM 74.5 °F 58.5 °F 57% 29.73 in 10.0 mi North 10.4 mph - N/A   Clear
5:15 PM 73.8 °F 58.5 °F 59% 29.73 in 10.0 mi North 5.8 mph - N/A   Clear
5:35 PM 73.0 °F 58.1 °F 59% 29.74 in 10.0 mi North 10.4 mph - N/A   Clear
5:55 PM 72.3 °F 57.7 °F 60% 29.73 in 10.0 mi NNW 6.9 mph - N/A   Clear
6:15 PM 71.6 °F 57.6 °F 61% 29.74 in 10.0 mi North 4.6 mph - N/A   Clear
6:35 PM 70.3 °F 57.6 °F 64% 29.74 in 10.0 mi North 5.8 mph - N/A   Clear
6:55 PM 69.4 °F 57.4 °F 65% 29.75 in 10.0 mi North 4.6 mph - N/A   Clear
7:15 PM 67.3 °F 57.2 °F 70% 29.75 in 10.0 mi North 3.5 mph - N/A   Clear
7:35 PM 65.8 °F 58.1 °F 76% 29.76 in 10.0 mi North 4.6 mph - N/A   Clear
7:55 PM 64.8 °F 57.7 °F 78% 29.76 in 10.0 mi North 3.5 mph - N/A   Clear
8:15 PM 64.4 °F 57.6 °F 78% 29.76 in 10.0 mi North 3.5 mph - N/A   Clear
8:35 PM 64.4 °F 57.4 °F 78% 29.77 in 10.0 mi North 4.6 mph - N/A   Clear
8:55 PM 64.6 °F 57.4 °F 77% 29.77 in 10.0 mi North 3.5 mph - N/A   Scattered Clouds
9:15 PM 63.5 °F 57.2 °F 80% 29.77 in 10.0 mi North 3.5 mph - N/A   Clear
9:55 PM 60.8 °F 57.2 °F 88% 29.78 in 10.0 mi NNW 3.5 mph - N/A   Clear
10:15 PM 59.9 °F 56.8 °F 90% 29.78 in 10.0 mi NW 3.5 mph - N/A   Clear
10:35 PM 59.0 °F 56.7 °F 92% 29.78 in 10.0 mi NNW 4.6 mph - N/A   Clear
10:55 PM 59.4 °F 56.7 °F 91% 29.79 in 10.0 mi North 4.6 mph - N/A   Clear
11:15 PM 58.5 °F 56.5 °F 93% 29.79 in 10.0 mi NNW 3.5 mph - N/A   Clear
11:35 PM 58.3 °F 56.5 °F 94% 29.80 in 10.0 mi NW 4.6 mph - N/A   Clear